Tracking 33198 objects as of 13-Feb-2026
HD Live streaming from Space Station
objects crossing your sky now

DELTA 2 R/B(1)

Track DELTA 2 R/B(1) now!
10-day predictions


NORAD ID: 27665
Int'l Code: 2003-005C
Perigee: 793.5 km
Apogee: 807.5 km
Inclination: 39.6 °
Period: 100.7 minutes
Semi major axis: 7171 km
RCS: 9.691 m2 (large)
Launch date: January 29, 2003
Source: United States (US)
Launch site: AIR FORCE EASTERN TEST RANGE (AFETR)

Note: This is a ROCKET BODY
Your satellite tracking list
Your tracking list is empty




NASA's NSSDC Master Catalog

Two Line Element Set (TLE):
1 27665U 03005C   26044.47518090  .00000128  00000-0  82711-4 0  9998
2 27665  39.5738 195.8958 0009723 314.2431  88.3625 14.29515425203327
Source of the keplerian elements: AFSPC